Date,TemperatureHighF,TemperatureAvgF,TemperatureLowF,DewpointHighF,DewpointAvgF,DewpointLowF,HumidityHigh,HumidityAvg,HumidityLow,PressureMaxIn,PressureMinIn,WindSpeedMaxMPH,WindSpeedAvgMPH,GustSpeedMaxMPH,PrecipitationSumIn
2013-1-1,45.0,42.9,40.0,-99.9,-99.9,-99.9,0,0,100,30.01,29.86,21,10,23,0.00
2013-1-2,40.0,34.8,33.0,-99.9,-99.9,-99.9,0,0,100,30.22,29.98,20,14,24,0.00
2013-1-3,35.0,21.5,28.0,-99.9,-99.9,-99.9,0,0,100,30.24,30.15,19,11,22,0.00
2013-1-4,42.0,33.6,31.0,-99.9,-99.9,-99.9,0,0,100,30.20,30.07,23,12,28,0.00
2013-1-5,38.0,36.3,33.0,-99.9,-99.9,-99.9,0,0,100,30.38,30.13,24,10,26,0.00
2013-1-6,48.0,41.4,37.0,-99.9,-99.9,-99.9,0,0,100,30.27,30.03,10,-2,14,0.00
2013-1-7,45.0,41.6,35.0,-99.9,-99.9,-99.9,0,0,100,30.45,30.10,17,10,20,0.00
2013-1-8,55.0,44.1,35.0,-99.9,-99.9,-99.9,0,0,100,30.46,30.37,14,-2,20,0.00
2013-1-9,62.0,50.9,42.0,-99.9,-99.9,-99.9,0,0,100,30.41,30.22,17,-1,22,0.00
2013-1-10,51.0,45.4,43.0,-99.9,-99.9,-99.9,0,0,100,30.57,30.33,16,10,20,0.00
2013-1-11,55.0,45.6,39.0,-99.9,-99.9,-99.9,0,0,100,30.52,30.07,14,-29,20,0.00
2013-1-12,49.0,44.4,42.0,-99.9,-99.9,-99.9,0,0,100,30.17,30.08,15,7,19,0.00
2013-1-13,55.0,47.1,41.0,-99.9,-99.9,-99.9,0,0,100,30.16,30.03,14,6,19,0.00
2013-1-14,64.0,51.5,45.0,-99.9,-99.9,-99.9,0,0,100,30.23,30.04,20,11,24,0.00
2013-1-15,45.0,40.9,38.0,-99.9,-99.9,-99.9,0,0,100,30.32,30.15,22,14,25,0.00
2013-1-16,44.0,41.1,38.0,-99.9,-99.9,-99.9,0,0,100,30.15,29.86,22,10,29,0.00
2013-1-17,44.0,41.8,35.0,-99.9,-99.9,-99.9,0,0,100,30.13,29.97,18,7,22,0.00
2013-1-18,40.0,31.7,30.0,-99.9,-99.9,-99.9,0,0,100,30.53,30.01,31,13,38,0.00
2013-1-19,54.0,39.0,30.0,-99.9,-99.9,-99.9,0,0,100,30.49,30.03,18,10,29,0.00
2013-1-20,57.0,48.1,40.0,-99.9,-99.9,-99.9,0,0,100,30.06,29.81,29,14,35,0.00
2013-1-21,41.0,36.3,33.0,-99.9,-99.9,-99.9,0,0,100,30.13,29.76,37,-15,45,0.00
2013-1-22,34.0,18.2,21.0,-99.9,-99.9,-99.9,0,0,100,30.27,29.88,36,25,43,0.00
2013-1-23,25.0,14.6,15.0,-99.9,-99.9,-99.9,0,0,100,30.33,30.19,27,16,34,0.00
2013-1-24,26.0,16.8,19.0,-99.9,-99.9,-99.9,0,0,100,30.48,30.10,31,20,38,0.00
2013-1-25,25.0,17.1,19.0,-99.9,-99.9,-99.9,0,0,100,30.48,30.07,21,8,25,0.00
2013-1-26,30.0,16.1,23.0,-99.9,-99.9,-99.9,0,0,100,30.42,30.07,27,20,32,0.00
2013-1-27,34.0,19.6,22.0,-99.9,-99.9,-99.9,0,0,100,30.60,30.41,22,-12,26,0.00
2013-1-28,48.0,32.8,28.0,-99.9,-99.9,-99.9,0,0,100,30.53,30.05,15,7,23,0.00
2013-1-29,53.0,48.6,44.0,-99.9,-99.9,-99.9,0,0,100,30.15,30.04,13,8,17,0.00
2013-1-30,71.0,60.4,51.0,-99.9,-99.9,-99.9,0,0,100,30.05,29.42,24,11,40,0.00
2013-1-31,63.0,43.9,34.0,-99.9,-99.9,-99.9,0,0,100,29.93,29.41,36,26,44,0.00
2013-2-1,35.0,13.8,24.0,-99.9,-99.9,-99.9,0,0,100,30.34,29.84,44,18,54,0.00
2013-2-2,31.0,11.8,18.0,-99.9,-99.9,-99.9,0,0,100,30.38,30.04,22,8,27,0.00
2013-2-3,35.0,15.9,28.0,-99.9,-99.9,-99.9,0,0,100,30.06,29.83,17,8,19,0.00
2013-2-4,36.0,19.6,27.0,-99.9,-99.9,-99.9,0,0,100,30.11,29.89,36,15,43,0.00
2013-2-5,44.0,39.1,36.0,-99.9,-99.9,-99.9,0,0,100,29.95,29.86,15,-8,17,0.00
2013-2-6,40.0,37.5,34.0,-99.9,-99.9,-99.9,0,0,100,30.36,29.91,19,10,24,0.00
2013-2-7,43.0,37.3,33.0,-99.9,-99.9,-99.9,0,0,100,30.47,30.22,22,13,27,0.00
2013-2-8,45.0,41.2,37.0,-99.9,-99.9,-99.9,0,0,100,30.21,29.59,31,20,37,0.00
2013-2-9,38.0,26.0,29.0,-99.9,-99.9,-99.9,0,0,100,30.36,29.77,39,28,47,0.00
2013-2-10,38.0,24.3,28.0,-99.9,-99.9,-99.9,0,0,100,30.51,30.32,27,10,33,0.00
2013-2-11,59.0,52.5,39.0,-99.9,-99.9,-99.9,0,0,100,30.32,29.70,23,11,35,0.00
2013-2-12,56.0,44.5,40.0,-99.9,-99.9,-99.9,0,0,100,29.98,29.73,21,2,26,0.00
2013-2-13,42.0,39.5,36.0,-99.9,-99.9,-99.9,0,0,100,29.97,29.61,25,13,32,0.00
2013-2-14,42.0,37.9,36.0,-99.9,-99.9,-99.9,0,0,100,30.06,29.70,22,9,26,0.00
2013-2-15,53.0,43.8,36.0,-99.9,-99.9,-99.9,0,0,100,30.06,29.93,20,7,27,0.00
2013-2-16,43.0,34.3,31.0,-99.9,-99.9,-99.9,0,0,100,29.98,29.74,30,18,36,0.00
2013-2-17,35.0,13.8,28.0,-99.9,-99.9,-99.9,0,0,100,30.11,29.73,38,29,44,0.00
2013-2-18,38.0,18.6,24.0,-99.9,-99.9,-99.9,0,0,100,30.35,30.10,37,16,45,0.00
2013-2-19,53.0,44.2,34.0,-99.9,-99.9,-99.9,0,0,100,30.24,29.74,26,10,34,0.00
2013-2-20,42.0,30.8,29.0,-99.9,-99.9,-99.9,0,0,100,30.11,29.82,33,23,43,0.00
2013-2-21,37.0,19.7,26.0,-99.9,-99.9,-99.9,0,0,100,30.29,30.09,34,22,38,0.00
2013-2-22,38.0,23.9,29.0,-99.9,-99.9,-99.9,0,0,100,30.40,30.22,22,10,27,0.00
2013-2-23,48.0,42.4,38.0,-99.9,-99.9,-99.9,0,0,100,30.23,29.77,17,10,25,0.00
2013-2-24,44.0,40.1,37.0,-99.9,-99.9,-99.9,0,0,100,30.04,29.75,29,15,40,0.00
2013-2-25,42.0,36.1,33.0,-99.9,-99.9,-99.9,0,0,100,30.25,30.04,27,4,31,0.00
2013-2-26,51.0,39.7,31.0,-99.9,-99.9,-99.9,0,0,100,30.25,29.63,29,-21,42,0.00
2013-2-27,54.0,50.0,44.0,-99.9,-99.9,-99.9,0,0,100,29.69,29.49,24,11,32,0.00
2013-2-28,46.0,42.5,39.0,-99.9,-99.9,-99.9,0,0,100,29.70,29.60,21,-19,23,0.00
2013-3-1,42.0,40.3,37.0,-99.9,-99.9,-99.9,0,0,100,29.83,29.68,19,12,21,0.00
2013-3-2,39.0,36.8,35.0,-99.9,-99.9,-99.9,0,0,100,29.84,29.76,22,14,25,0.00
2013-3-3,38.0,31.9,30.0,-99.9,-99.9,-99.9,0,0,100,29.84,29.75,27,19,33,0.00
2013-3-4,40.0,30.8,31.0,-99.9,-99.9,-99.9,0,0,100,30.00,29.84,29,23,36,0.00
2013-3-5,42.0,33.2,31.0,-99.9,-99.9,-99.9,0,0,100,30.07,29.89,24,12,30,0.00
2013-3-6,42.0,39.7,37.0,-99.9,-99.9,-99.9,0,0,100,29.88,29.45,52,34,70,0.00
2013-3-7,43.0,40.0,36.0,-99.9,-99.9,-99.9,0,0,100,30.08,29.84,36,24,42,0.00
2013-3-8,42.0,38.2,32.0,-99.9,-99.9,-99.9,0,0,100,30.19,30.04,33,25,41,0.00
2013-3-9,52.0,42.1,38.0,-99.9,-99.9,-99.9,0,0,100,30.30,30.18,23,14,28,0.00
2013-3-10,43.0,40.0,36.0,-99.9,-99.9,-99.9,0,0,100,30.37,30.30,13,-88,17,0.00
2013-3-11,56.0,46.7,40.0,-99.9,-99.9,-99.9,0,0,100,30.31,30.05,15,8,26,0.00
2013-3-12,60.0,52.9,45.0,-99.9,-99.9,-99.9,0,0,100,30.07,29.72,24,13,32,0.00
2013-3-13,49.0,43.1,38.0,-99.9,-99.9,-99.9,0,0,100,29.99,29.87,29,14,36,0.00
2013-3-14,42.0,38.1,32.0,-99.9,-99.9,-99.9,0,0,100,30.06,29.96,32,22,39,0.00
2013-3-15,51.0,40.4,31.0,-99.9,-99.9,-99.9,0,0,100,30.08,29.80,24,10,29,0.00
2013-3-16,46.0,42.7,39.0,-99.9,-99.9,-99.9,0,0,100,29.90,29.69,25,-24,29,0.00
2013-3-17,40.0,37.9,37.0,-99.9,-99.9,-99.9,0,0,100,30.28,29.89,20,13,24,0.00
2013-3-18,49.0,40.7,37.0,-99.9,-99.9,-99.9,0,0,100,30.34,29.84,20,8,27,0.00
2013-3-19,50.0,44.6,42.0,-99.9,-99.9,-99.9,0,0,100,29.88,29.73,24,1,26,0.00
2013-3-20,51.0,43.4,34.0,-99.9,-99.9,-99.9,0,0,100,29.99,29.80,26,13,30,0.00
2013-3-21,44.0,32.1,31.0,-99.9,-99.9,-99.9,0,0,100,29.85,29.70,31,11,36,0.00
2013-3-22,43.0,27.5,29.0,-99.9,-99.9,-99.9,0,0,100,29.98,29.85,26,16,32,0.00
2013-3-23,47.0,36.2,31.0,-99.9,-99.9,-99.9,0,0,100,30.01,29.90,25,13,30,0.00
2013-3-24,43.0,38.0,33.0,-99.9,-99.9,-99.9,0,0,100,29.99,29.65,17,1,21,0.00
2013-3-25,39.0,36.4,35.0,-99.9,-99.9,-99.9,0,0,100,29.68,29.42,27,21,31,0.00
2013-3-26,47.0,40.4,35.0,-99.9,-99.9,-99.9,0,0,100,29.93,29.65,19,10,22,0.00
2013-3-27,48.0,43.2,39.0,-99.9,-99.9,-99.9,0,0,100,30.06,29.93,29,14,34,0.00
2013-3-28,46.0,42.2,37.0,-99.9,-99.9,-99.9,0,0,100,30.16,30.04,21,15,25,0.00
2013-3-29,50.0,43.9,39.0,-99.9,-99.9,-99.9,0,0,100,30.22,30.13,15,-13,17,0.00
2013-3-30,53.0,45.7,40.0,-99.9,-99.9,-99.9,0,0,100,30.22,30.13,10,6,13,0.00
2013-3-31,55.0,48.7,43.0,-99.9,-99.9,-99.9,0,0,100,30.17,29.73,18,9,27,0.00
2013-4-1,65.0,54.1,46.0,-99.9,-99.9,-99.9,0,0,100,29.93,29.68,26,12,31,0.00
2013-4-2,46.0,43.2,37.0,-99.9,-99.9,-99.9,0,0,100,30.15,29.93,27,17,46,0.00
2013-4-3,48.0,41.3,32.0,-99.9,-99.9,-99.9,0,0,100,30.33,30.14,32,16,38,0.00
2013-4-4,45.0,38.2,31.0,-99.9,-99.9,-99.9,0,0,100,30.43,30.14,26,10,30,0.00
2013-4-5,60.0,45.9,38.0,-99.9,-99.9,-99.9,0,0,100,30.14,29.80,21,-54,22,0.00
2013-4-6,52.0,43.2,40.0,-99.9,-99.9,-99.9,0,0,100,30.34,29.97,22,12,26,0.00
2013-4-7,60.0,50.1,38.0,-99.9,-99.9,-99.9,0,0,100,30.34,30.02,17,8,28,0.00
2013-4-8,73.0,62.7,55.0,-99.9,-99.9,-99.9,0,0,100,30.09,30.00,14,9,21,0.00
2013-4-9,82.0,71.7,64.0,-99.9,-99.9,-99.9,0,0,100,30.06,29.96,18,11,26,0.00
2013-4-10,88.0,76.8,68.0,-99.9,-99.9,-99.9,0,0,100,29.97,29.81,19,10,23,0.00
2013-4-11,76.0,56.3,48.0,-99.9,-99.9,-99.9,0,0,100,29.91,29.83,26,-21,34,0.00
2013-4-12,74.0,57.2,48.0,-99.9,-99.9,-99.9,0,0,100,29.86,29.60,20,11,26,0.00
2013-4-13,56.0,51.3,48.0,-99.9,-99.9,-99.9,0,0,100,29.95,29.67,25,11,30,0.00
2013-4-14,59.0,52.6,46.0,-99.9,-99.9,-99.9,0,0,100,30.17,29.95,14,-2,16,0.00
2013-4-15,55.0,51.4,49.0,-99.9,-99.9,-99.9,0,0,100,30.34,30.14,20,10,24,0.00
2013-4-16,66.0,58.6,50.0,-99.9,-99.9,-99.9,0,0,100,30.34,30.16,15,9,22,0.00
2013-4-17,65.0,58.5,53.0,-99.9,-99.9,-99.9,0,0,100,30.27,30.12,23,8,32,0.00
2013-4-18,60.0,55.8,53.0,-99.9,-99.9,-99.9,0,0,100,30.29,30.08,16,9,21,0.00
2013-4-19,76.0,67.9,59.0,-99.9,-99.9,-99.9,0,0,100,30.09,29.70,19,11,33,0.00
2013-4-20,67.0,54.7,50.0,-99.9,-99.9,-99.9,0,0,100,30.29,29.74,28,18,34,0.00
2013-4-21,53.0,45.8,42.0,-99.9,-99.9,-99.9,0,0,100,30.60,30.29,25,14,30,0.00
2013-4-22,49.0,46.7,45.0,-99.9,-99.9,-99.9,0,0,100,30.59,30.39,34,24,40,0.00
2013-4-23,50.0,47.6,46.0,-99.9,-99.9,-99.9,0,0,100,30.39,30.13,30,19,35,0.00
2013-4-24,65.0,55.4,43.0,-99.9,-99.9,-99.9,0,0,100,30.14,29.87,16,2,25,0.00
2013-4-25,62.0,53.6,48.0,-99.9,-99.9,-99.9,0,0,100,30.30,29.90,34,14,41,0.00
2013-4-26,61.0,52.5,44.0,-99.9,-99.9,-99.9,0,0,100,30.43,30.29,12,6,14,0.00
2013-4-27,59.0,53.2,46.0,-99.9,-99.9,-99.9,0,0,100,30.43,30.32,13,6,14,0.00
2013-4-28,61.0,54.6,45.0,-99.9,-99.9,-99.9,0,0,100,30.32,30.20,14,-8,16,0.00
2013-4-29,57.0,55.0,53.0,-99.9,-99.9,-99.9,0,0,100,30.20,30.10,15,10,24,0.00
2013-4-30,55.0,53.6,53.0,-99.9,-99.9,-99.9,0,0,100,30.27,30.10,23,17,28,0.00
2013-5-1,53.0,53.0,53.0,-99.9,-99.9,-99.9,0,0,100,30.41,30.26,23,18,27,0.00
2013-5-2,54.0,53.0,51.0,-99.9,-99.9,-99.9,0,0,100,30.40,30.33,15,9,19,0.00
2013-5-3,53.0,51.1,48.0,-99.9,-99.9,-99.9,0,0,100,30.42,30.32,31,17,36,0.00
2013-5-4,53.0,50.7,49.0,-99.9,-99.9,-99.9,0,0,100,30.35,30.22,23,17,26,0.00
2013-5-5,52.0,49.3,47.0,-99.9,-99.9,-99.9,0,0,100,30.24,30.19,27,20,31,0.00
2013-5-6,53.0,51.9,51.0,-99.9,-99.9,-99.9,0,0,100,30.19,30.14,29,19,35,0.00
2013-5-7,59.0,54.9,53.0,-99.9,-99.9,-99.9,0,0,100,30.05,29.94,25,17,30,0.00
2013-5-8,68.0,60.0,55.0,-99.9,-99.9,-99.9,0,0,100,30.00,29.93,14,-22,20,0.00
2013-5-9,72.0,62.8,57.0,-99.9,-99.9,-99.9,0,0,100,29.98,29.89,13,7,17,0.00
2013-5-10,77.0,67.2,61.0,-99.9,-99.9,-99.9,0,0,100,30.01,29.89,15,0,20,0.00
2013-5-11,80.0,69.2,60.0,-99.9,-99.9,-99.9,0,0,100,29.92,29.70,21,8,28,0.00
2013-5-12,64.0,61.4,57.0,-99.9,-99.9,-99.9,0,0,100,29.98,29.70,32,7,38,0.00
2013-5-13,58.0,53.7,45.0,-99.9,-99.9,-99.9,0,0,100,30.11,29.98,26,14,33,0.00
2013-5-14,59.0,52.4,46.0,-99.9,-99.9,-99.9,0,0,100,30.18,30.07,20,10,23,0.00
2013-5-15,80.0,66.0,54.0,-99.9,-99.9,-99.9,0,0,100,30.10,29.69,15,7,22,0.00
2013-5-16,83.0,69.0,65.0,-99.9,-99.9,-99.9,0,0,100,29.85,29.71,21,9,26,0.00
2013-5-17,73.0,65.6,60.0,-99.9,-99.9,-99.9,0,0,100,30.16,29.85,13,7,17,0.00
2013-5-18,65.0,61.6,59.0,-99.9,-99.9,-99.9,0,0,100,30.26,30.16,14,8,21,0.00
2013-5-19,66.0,62.2,58.0,-99.9,-99.9,-99.9,0,0,100,30.21,30.11,15,10,24,0.00
2013-5-20,82.0,73.1,65.0,-99.9,-99.9,-99.9,0,0,100,30.14,29.98,15,7,20,0.00
2013-5-21,82.0,74.1,68.0,-99.9,-99.9,-99.9,0,0,100,30.01,29.89,14,7,18,0.00
2013-5-22,82.0,75.2,70.0,-99.9,-99.9,-99.9,0,0,100,29.94,29.86,16,9,21,0.00
2013-5-23,78.0,73.2,66.0,-99.9,-99.9,-99.9,0,0,100,29.92,29.76,15,9,26,0.00
2013-5-24,68.0,60.6,52.0,-99.9,-99.9,-99.9,0,0,100,30.03,29.71,40,-2,47,0.00
2013-5-25,63.0,55.4,50.0,-99.9,-99.9,-99.9,0,0,100,30.09,30.00,37,24,46,0.00
2013-5-26,67.0,59.7,50.0,-99.9,-99.9,-99.9,0,0,100,30.18,30.08,23,14,27,0.00
2013-5-27,67.0,62.0,56.0,-99.9,-99.9,-99.9,0,0,100,30.26,30.17,11,-1,13,0.00
2013-5-28,78.0,67.1,62.0,-99.9,-99.9,-99.9,0,0,100,30.22,30.09,14,6,19,0.00
2013-5-29,87.0,77.5,68.0,-99.9,-99.9,-99.9,0,0,100,30.12,30.08,18,9,25,0.00
2013-5-30,88.0,79.1,71.0,-99.9,-99.9,-99.9,0,0,100,30.17,30.11,13,7,18,0.00
2013-5-31,91.0,79.9,71.0,-99.9,-99.9,-99.9,0,0,100,30.16,30.04,15,8,22,0.00
2013-6-1,90.0,80.1,73.0,-99.9,-99.9,-99.9,0,0,100,30.06,29.95,17,10,26,0.00
2013-6-2,87.0,79.8,71.0,-99.9,-99.9,-99.9,0,0,100,29.96,29.84,19,10,27,0.00
2013-6-3,74.0,70.7,67.0,-99.9,-99.9,-99.9,0,0,100,29.89,29.79,11,-16,16,0.00
2013-6-4,70.0,66.3,63.0,-99.9,-99.9,-99.9,0,0,100,30.09,29.87,19,9,22,0.00
2013-6-5,68.0,63.4,58.0,-99.9,-99.9,-99.9,0,0,100,30.17,30.09,13,7,15,0.00
2013-6-6,70.0,65.0,60.0,-99.9,-99.9,-99.9,0,0,100,30.10,29.91,15,-6,21,0.00
2013-6-7,74.0,68.3,65.0,-99.9,-99.9,-99.9,0,0,100,29.91,29.48,18,9,24,0.00
2013-6-8,75.0,69.3,65.0,-99.9,-99.9,-99.9,0,0,100,30.06,29.48,29,9,38,0.00
2013-6-9,76.0,69.8,65.0,-99.9,-99.9,-99.9,0,0,100,30.19,30.06,12,-24,16,0.00
2013-6-10,76.0,71.1,66.0,-99.9,-99.9,-99.9,0,0,100,30.13,29.82,13,7,23,0.00
2013-6-11,81.0,76.0,71.0,-99.9,-99.9,-99.9,0,0,100,29.83,29.72,21,12,28,0.00
2013-6-12,80.0,75.4,72.0,-99.9,-99.9,-99.9,0,0,100,29.84,29.79,17,2,20,0.00
2013-6-13,89.0,73.7,66.0,-99.9,-99.9,-99.9,0,0,100,29.82,29.43,28,11,36,0.00
2013-6-14,73.0,64.4,58.0,-99.9,-99.9,-99.9,0,0,100,29.92,29.49,29,16,33,0.00
2013-6-15,76.0,69.1,61.0,-99.9,-99.9,-99.9,0,0,100,30.04,29.92,15,6,18,0.00
2013-6-16,85.0,75.3,68.0,-99.9,-99.9,-99.9,0,0,100,30.01,29.87,19,0,25,0.00
2013-6-17,83.0,76.8,72.0,-99.9,-99.9,-99.9,0,0,100,29.94,29.88,11,6,15,0.00
2013-6-18,79.0,71.1,64.0,-99.9,-99.9,-99.9,0,0,100,29.93,29.77,30,-5,36,0.00
2013-6-19,68.0,66.3,62.0,-99.9,-99.9,-99.9,0,0,100,30.14,29.81,22,12,25,0.00
2013-6-20,74.0,66.0,60.0,-99.9,-99.9,-99.9,0,0,100,30.28,30.14,9,-109,14,0.00
2013-6-22,75.0,72.9,70.0,-99.9,-99.9,-99.9,0,0,100,30.27,30.17,12,7,16,0.00
2013-6-23,83.0,76.0,68.0,-99.9,-99.9,-99.9,0,0,100,30.19,30.07,15,-29,23,0.00
2013-6-28,87.0,78.8,70.0,-99.9,-99.9,-99.9,0,0,100,29.64,29.49,16,7,22,0.00
2013-6-29,86.0,76.2,70.0,-99.9,-99.9,-99.9,0,0,100,29.70,29.49,11,6,16,0.00
2013-6-30,83.0,76.7,74.0,-99.9,-99.9,-99.9,0,0,100,29.88,29.70,14,6,18,0.00
2013-7-1,79.0,76.2,72.0,-99.9,-99.9,-99.9,0,0,100,30.01,29.87,12,7,18,0.00
2013-7-2,84.0,77.0,74.0,-99.9,-99.9,-99.9,0,0,100,30.20,30.03,14,7,23,0.00
2013-7-3,85.0,77.9,72.0,-99.9,-99.9,-99.9,0,0,100,30.25,30.19,14,6,18,0.00
2013-7-4,88.0,80.7,75.0,-99.9,-99.9,-99.9,0,0,100,30.27,30.19,13,7,17,0.00
2013-7-5,89.0,81.1,74.0,-99.9,-99.9,-99.9,0,0,100,30.24,30.14,13,8,19,0.00
2013-7-6,92.0,82.3,76.0,-99.9,-99.9,-99.9,0,0,100,30.18,30.07,16,8,22,0.00
2013-7-7,91.0,82.7,76.0,-99.9,-99.9,-99.9,0,0,100,30.12,29.99,16,9,27,0.00
2013-7-8,85.0,79.1,75.0,-99.9,-99.9,-99.9,0,0,100,30.09,30.02,14,7,19,0.00
2013-7-9,87.0,80.4,75.0,-99.9,-99.9,-99.9,0,0,100,30.09,30.01,14,6,16,0.00
2013-7-10,87.0,56.3,76.0,-99.9,-99.9,-99.9,0,0,100,30.04,29.85,14,-148,19,0.00
2013-7-11,78.0,24.1,72.0,-99.9,-99.9,-99.9,0,0,100,29.91,29.84,14,-275,19,0.00
2013-7-12,74.0,12.2,68.0,-99.9,-99.9,-99.9,0,0,100,30.00,29.88,22,-155,25,0.00
2013-7-13,87.0,19.2,69.0,-99.9,-99.9,-99.9,0,0,100,30.28,30.00,13,-216,20,0.00
2013-7-14,81.0,25.9,74.0,-99.9,-99.9,-99.9,0,0,100,30.34,30.27,13,-323,16,0.00
2013-7-15,89.0,22.8,74.0,-99.9,-99.9,-99.9,0,0,100,30.29,30.16,11,-268,14,0.00
2013-7-16,85.0,14.0,78.0,-99.9,-99.9,-99.9,0,0,100,30.18,30.13,11,-118,13,0.00
2013-7-17,88.0,16.4,76.0,-99.9,-99.9,-99.9,0,0,100,30.17,30.08,9,-190,10,0.00
2013-7-18,94.0,21.4,78.0,-99.9,-99.9,-99.9,0,0,100,30.10,29.98,12,-184,16,0.00
2013-7-19,94.0,9.4,79.0,-99.9,-99.9,-99.9,0,0,100,30.01,29.87,14,-80,19,0.00
2013-7-20,92.0,25.8,81.0,-99.9,-99.9,-99.9,0,0,100,29.88,29.78,16,-251,23,0.00
2013-7-21,85.0,31.0,71.0,-99.9,-99.9,-99.9,0,0,100,29.93,29.86,17,-373,24,0.00
2013-7-22,83.0,30.2,73.0,-99.9,-99.9,-99.9,0,0,100,29.92,29.77,13,-338,19,0.00
2013-7-23,86.0,15.8,76.0,-99.9,-99.9,-99.9,0,0,100,29.77,29.61,16,-107,20,0.00
2013-7-24,79.0,9.0,75.0,-99.9,-99.9,-99.9,0,0,100,29.86,29.65,14,-74,16,0.00
2013-7-25,73.0,9.4,69.0,-99.9,-99.9,-99.9,0,0,100,30.01,29.86,21,-111,26,0.00
2013-7-26,78.0,16.0,66.0,-99.9,-99.9,-99.9,0,0,100,30.06,29.98,18,-211,20,0.00
2013-7-27,80.0,22.8,68.0,-99.9,-99.9,-99.9,0,0,100,30.07,29.94,14,-301,18,0.00
2013-7-28,81.0,26.7,70.0,-99.9,-99.9,-99.9,0,0,100,29.96,29.89,16,-352,26,0.00
2013-7-29,78.0,15.8,72.0,-99.9,-99.9,-99.9,0,0,100,30.13,29.94,16,-205,20,0.00
2013-7-30,78.0,30.6,67.0,-99.9,-99.9,-99.9,0,0,100,30.19,30.12,10,-379,12,0.00
2013-7-31,79.0,73.1,67.0,-99.9,-99.9,-99.9,0,0,100,0.00,40.00,0,-999,0,0.00
2013-8-1,77.0,71.8,67.0,-99.9,-99.9,-99.9,0,0,100,0.00,40.00,0,-999,0,0.00
2013-8-2,86.0,74.6,68.0,-99.9,-99.9,-99.9,0,0,100,0.00,40.00,0,-999,0,0.00
2013-8-3,78.0,74.9,72.0,-99.9,-99.9,-99.9,0,0,100,29.94,29.91,6,-973,10,0.00
2013-8-4,77.0,72.8,70.0,-99.9,-99.9,-99.9,0,0,100,29.96,29.96,10,-990,11,0.00
2013-8-5,75.0,71.3,69.0,-99.9,-99.9,-99.9,0,0,100,30.04,30.01,7,-975,8,0.00
2013-8-6,74.0,69.6,67.0,-99.9,-99.9,-99.9,0,0,100,30.03,30.03,4,-975,4,0.00
2013-8-7,78.0,48.1,69.0,-99.9,-99.9,-99.9,0,0,100,30.10,30.04,12,-663,17,0.00
2013-8-8,84.0,24.1,75.0,-99.9,-99.9,-99.9,0,0,100,30.06,30.01,12,-302,17,0.00
2013-8-9,89.0,23.6,75.0,-99.9,-99.9,-99.9,0,0,100,30.01,29.83,15,-254,23,0.00
2013-8-10,77.0,22.5,73.0,-99.9,-99.9,-99.9,0,0,100,30.05,29.91,12,-292,15,0.00
2013-8-11,76.0,31.5,70.0,-99.9,-99.9,-99.9,0,0,100,30.11,30.02,11,-426,13,0.00
2013-8-12,82.0,23.4,73.0,-99.9,-99.9,-99.9,0,0,100,30.04,29.92,23,-266,27,0.00
2013-8-13,79.0,1.0,79.0,-99.9,-99.9,-99.9,0,0,100,29.92,29.73,24,-4,32,0.00
2013-8-14,70.0,1.8,70.0,-99.9,-99.9,-99.9,0,0,100,30.04,29.75,28,-7,32,0.00
2013-8-15,68.0,0.9,68.0,-99.9,-99.9,-99.9,0,0,100,30.16,30.05,20,-6,24,0.00
2013-8-16,71.0,1.7,70.0,-99.9,-99.9,-99.9,0,0,100,30.18,30.12,12,-18,17,0.00
2013-8-17,72.0,3.5,70.0,-99.9,-99.9,-99.9,0,0,100,30.25,30.16,18,-26,22,0.00
2013-8-18,72.0,2.9,70.0,-99.9,-99.9,-99.9,0,0,100,30.21,30.11,21,-28,25,0.00
2013-8-19,73.0,1.9,72.0,-99.9,-99.9,-99.9,0,0,100,30.15,30.07,9,-8,11,0.00
2013-8-20,77.0,3.7,67.0,-99.9,-99.9,-99.9,0,0,100,30.15,30.07,9,-48,12,0.00
2013-8-21,72.0,1.7,70.0,-99.9,-99.9,-99.9,0,0,100,30.19,30.09,11,-18,15,0.00
2013-8-22,74.0,2.9,71.0,-99.9,-99.9,-99.9,0,0,100,30.09,29.92,22,-20,25,0.00
2013-8-23,76.0,4.3,74.0,-99.9,-99.9,-99.9,0,0,100,30.07,29.89,16,-48,18,0.00
2013-8-24,71.0,3.4,69.0,-99.9,-99.9,-99.9,0,0,100,30.32,30.07,20,-38,23,0.00
2013-8-25,70.0,0.5,70.0,-99.9,-99.9,-99.9,0,0,100,30.40,30.28,11,-2,15,0.00
2013-8-26,-200.0,0.0,200.0,-99.9,-99.9,-99.9,0,0,100,30.30,29.99,14,7,18,0.00
2013-8-27,-200.0,0.0,200.0,-99.9,-99.9,-99.9,0,0,100,30.00,29.87,14,9,20,0.00
2013-8-28,-200.0,0.0,200.0,-99.9,-99.9,-99.9,0,0,100,29.85,29.82,16,8,18,0.00
2013-8-29,-200.0,0.0,200.0,-99.9,-99.9,-99.9,0,0,100,30.01,29.82,22,13,27,0.00
2013-8-30,-200.0,0.0,200.0,-99.9,-99.9,-99.9,0,0,100,30.04,29.91,10,5,16,0.00
2013-8-31,-200.0,0.0,200.0,-99.9,-99.9,-99.9,0,0,100,29.94,29.82,13,8,20,0.00
2013-9-1,-200.0,0.0,200.0,-99.9,-99.9,-99.9,0,0,100,29.85,29.77,16,6,23,0.00
2013-9-2,-200.0,0.0,200.0,-99.9,-99.9,-99.9,0,0,100,29.79,29.73,11,6,15,0.00
2013-9-3,78.0,1.3,75.0,-99.9,-99.9,-99.9,0,0,100,29.90,29.72,161,-8,185,0.00
2013-9-4,74.0,2.8,68.0,-99.9,-99.9,-99.9,0,0,100,30.05,29.91,19,-28,22,0.00
2013-9-5,76.0,3.0,73.0,-99.9,-99.9,-99.9,0,0,100,30.09,29.97,22,-32,27,0.00
2013-9-6,69.0,1.8,64.0,-99.9,-99.9,-99.9,0,0,100,30.22,30.10,24,-4,27,0.00
2013-9-7,71.0,1.8,70.0,-99.9,-99.9,-99.9,0,0,100,30.14,29.93,13,-20,18,0.00
2013-9-8,74.0,3.3,66.0,-99.9,-99.9,-99.9,0,0,100,30.03,29.84,21,-16,25,0.00
2013-9-9,72.0,2.0,68.0,-99.9,-99.9,-99.9,0,0,100,30.19,30.03,21,-7,25,0.00
2013-9-10,87.0,1.0,87.0,-99.9,-99.9,-99.9,0,0,100,30.19,30.09,13,-5,21,0.00
2013-9-11,84.0,1.1,84.0,-99.9,-99.9,-99.9,0,0,100,30.15,30.03,11,-6,16,0.00
2013-9-12,81.0,6.7,72.0,-99.9,-99.9,-99.9,0,0,100,30.02,29.71,14,-54,20,0.00
2013-9-13,71.0,0.9,71.0,-99.9,-99.9,-99.9,0,0,100,29.84,29.66,19,0,23,0.00
2013-9-14,65.0,2.6,62.0,-99.9,-99.9,-99.9,0,0,100,30.14,29.85,23,-11,26,0.00
2013-9-15,-200.0,0.0,200.0,-99.9,-99.9,-99.9,0,0,100,30.23,30.11,15,6,20,0.00
2013-9-16,71.0,4.0,66.0,-99.9,-99.9,-99.9,0,0,100,30.18,30.04,21,-18,26,0.00
2013-9-17,61.0,2.1,59.0,-99.9,-99.9,-99.9,0,0,100,30.39,30.19,28,-4,32,0.00
2013-9-18,-200.0,0.0,200.0,-99.9,-99.9,-99.9,0,0,100,30.33,30.29,13,7,15,0.00
2013-9-19,66.0,2.2,55.0,-99.9,-99.9,-99.9,0,0,100,30.20,30.09,11,-7,15,0.00
2013-9-20,66.0,2.0,57.0,-99.9,-99.9,-99.9,0,0,100,30.10,29.99,13,-4,17,0.00
2013-9-21,76.0,2.4,62.0,-99.9,-99.9,-99.9,0,0,100,30.01,29.69,15,-5,23,0.00
2013-9-22,68.0,1.5,65.0,-99.9,-99.9,-99.9,0,0,100,29.89,29.67,23,16,27,0.00
2013-9-23,64.0,1.3,59.0,-99.9,-99.9,-99.9,0,0,100,30.04,29.89,26,-3,30,0.00
2013-9-24,68.0,2.4,58.0,-99.9,-99.9,-99.9,0,0,100,30.06,29.92,17,-27,20,0.00
2013-9-25,60.0,2.0,56.0,-99.9,-99.9,-99.9,0,0,100,29.94,29.87,15,-16,17,0.00
2013-9-26,65.0,2.2,63.0,-99.9,-99.9,-99.9,0,0,100,30.06,29.90,14,-15,16,0.00
2013-9-27,66.0,1.5,65.0,-99.9,-99.9,-99.9,0,0,100,30.22,30.05,23,-10,27,0.00
2013-9-28,65.0,2.6,63.0,-99.9,-99.9,-99.9,0,0,100,30.27,30.18,22,-23,24,0.00
2013-9-29,66.0,3.0,64.0,-99.9,-99.9,-99.9,0,0,100,30.18,30.04,19,-32,23,0.00
2013-9-30,-200.0,0.0,200.0,-99.9,-99.9,-99.9,0,0,100,30.07,29.99,16,9,18,0.00
2013-10-1,71.0,5.1,71.0,-99.9,-99.9,-99.9,0,0,100,30.02,29.96,7,5,9,0.00
2013-10-2,73.0,5.9,64.0,-99.9,-99.9,-99.9,0,0,100,30.04,29.97,9,-69,14,0.00
2013-10-3,72.0,2.7,69.0,-99.9,-99.9,-99.9,0,0,100,30.10,30.04,10,-33,13,0.00
2013-10-4,76.0,3.7,67.0,-99.9,-99.9,-99.9,0,0,100,30.07,30.00,10,-46,13,0.00
2013-10-5,74.0,3.8,69.0,-99.9,-99.9,-99.9,0,0,100,30.07,30.01,13,-49,15,0.00
2013-10-6,72.0,3.0,67.0,-99.9,-99.9,-99.9,0,0,100,30.04,29.97,12,-38,16,0.00
2013-10-7,81.0,3.8,65.0,-99.9,-99.9,-99.9,0,0,100,30.01,29.82,25,-41,28,0.00
2013-10-8,64.0,3.9,61.0,-99.9,-99.9,-99.9,0,0,100,30.24,30.01,28,-45,32,0.00
2013-10-9,64.0,3.4,62.0,-99.9,-99.9,-99.9,0,0,100,30.25,30.14,35,-27,41,0.00
2013-10-10,64.0,0.8,64.0,-99.9,-99.9,-99.9,0,0,100,30.14,29.89,38,19,47,0.00
2013-10-11,66.0,3.8,65.0,-99.9,-99.9,-99.9,0,0,100,29.93,29.83,33,-31,41,0.00
2013-10-12,65.0,0.7,65.0,-99.9,-99.9,-99.9,0,0,100,30.09,29.92,35,17,41,0.00
2013-10-13,63.0,2.4,63.0,-99.9,-99.9,-99.9,0,0,100,30.29,30.09,34,-10,41,0.00
2013-10-14,-200.0,0.0,200.0,-99.9,-99.9,-99.9,0,0,100,30.29,30.22,23,17,27,0.00
2013-10-15,63.0,1.4,61.0,-99.9,-99.9,-99.9,0,0,100,30.22,30.07,19,2,21,0.00
2013-10-16,64.0,2.5,61.0,-99.9,-99.9,-99.9,0,0,100,30.08,29.93,12,-34,15,0.00
2013-10-17,74.0,1.7,68.0,-99.9,-99.9,-99.9,0,0,100,29.93,29.75,11,-7,17,0.00
2013-10-18,66.0,4.3,56.0,-99.9,-99.9,-99.9,0,0,100,30.01,29.75,28,-59,35,0.00
2013-10-19,-200.0,0.0,200.0,-99.9,-99.9,-99.9,0,0,100,30.00,29.79,14,5,16,0.00
2013-10-20,61.0,1.6,59.0,-99.9,-99.9,-99.9,0,0,100,30.09,29.82,28,-12,34,0.00
2013-10-21,63.0,2.2,52.0,-99.9,-99.9,-99.9,0,0,100,30.16,29.99,11,-32,18,0.00
2013-10-22,65.0,2.4,54.0,-99.9,-99.9,-99.9,0,0,100,30.00,29.78,14,-6,16,0.00
2013-10-23,60.0,4.0,51.0,-99.9,-99.9,-99.9,0,0,100,29.83,29.61,25,-45,30,0.00
2013-10-24,46.0,2.8,45.0,-99.9,-99.9,-99.9,0,0,100,30.09,29.82,23,-36,29,0.00
2013-10-25,52.0,1.7,44.0,-99.9,-99.9,-99.9,0,0,100,30.29,30.09,22,-23,27,0.00
2013-10-26,55.0,3.6,38.0,-99.9,-99.9,-99.9,0,0,100,30.30,29.94,15,-44,23,0.00
2013-10-27,56.0,2.8,53.0,-99.9,-99.9,-99.9,0,0,100,30.14,29.93,24,-14,26,0.00
2013-10-28,61.0,1.5,60.0,-99.9,-99.9,-99.9,0,0,100,30.25,30.14,12,-19,14,0.00
2013-10-29,59.0,2.9,54.0,-99.9,-99.9,-99.9,0,0,100,30.34,30.25,17,-26,20,0.00
2013-10-30,58.0,2.3,56.0,-99.9,-99.9,-99.9,0,0,100,30.33,30.17,6,-10,9,0.00
2013-10-31,73.0,5.2,56.0,-99.9,-99.9,-99.9,0,0,100,30.19,29.87,15,-50,22,0.00
2013-11-1,71.0,2.6,67.0,-99.9,-99.9,-99.9,0,0,100,29.87,29.61,18,-28,36,0.00
2013-11-2,61.0,2.7,60.0,-99.9,-99.9,-99.9,0,0,100,29.82,29.59,27,-26,32,0.00
2013-11-3,57.0,0.7,57.0,-99.9,-99.9,-99.9,0,0,100,30.42,29.81,27,8,33,0.00
2013-11-4,46.0,2.7,41.0,-99.9,-99.9,-99.9,0,0,100,30.58,30.42,29,-43,35,0.00
2013-11-5,-200.0,0.0,200.0,-99.9,-99.9,-99.9,0,0,100,30.58,30.45,16,9,23,0.00
2013-11-6,62.0,2.3,60.0,-99.9,-99.9,-99.9,0,0,100,30.46,30.09,16,-18,21,0.00
2013-11-7,63.0,2.2,53.0,-99.9,-99.9,-99.9,0,0,100,30.09,29.79,29,-26,34,0.00
2013-11-8,45.0,0.5,45.0,-99.9,-99.9,-99.9,0,0,100,30.28,29.99,30,7,34,0.00
2013-11-9,50.0,2.6,39.0,-99.9,-99.9,-99.9,0,0,100,30.34,30.03,14,-50,17,0.00
2013-11-10,50.0,1.2,47.0,-99.9,-99.9,-99.9,0,0,100,30.16,29.88,30,-8,37,0.00
2013-11-11,55.0,2.8,45.0,-99.9,-99.9,-99.9,0,0,100,30.28,30.03,18,-47,25,0.00
2013-11-12,38.0,0.5,38.0,-99.9,-99.9,-99.9,0,0,100,30.31,29.95,34,9,41,0.00
2013-11-13,-200.0,0.0,200.0,-99.9,-99.9,-99.9,0,0,100,30.40,30.32,34,20,42,0.00
2013-11-14,56.0,0.5,56.0,-99.9,-99.9,-99.9,0,0,100,30.38,30.24,14,-2,20,0.00
2013-11-15,56.0,1.9,45.0,-99.9,-99.9,-99.9,0,0,100,30.27,30.18,12,-3,18,0.00
2013-11-16,52.0,1.0,50.0,-99.9,-99.9,-99.9,0,0,100,30.32,30.22,10,-5,12,0.00
2013-11-17,59.0,0.5,59.0,-99.9,-99.9,-99.9,0,0,100,30.22,29.81,12,5,19,0.00
2013-11-18,66.0,0.6,66.0,-99.9,-99.9,-99.9,0,0,100,29.84,29.69,28,11,37,0.00
2013-11-19,48.0,0.9,48.0,-99.9,-99.9,-99.9,0,0,100,30.33,29.84,33,5,40,0.00
2013-11-20,43.0,1.1,40.0,-99.9,-99.9,-99.9,0,0,100,30.53,30.32,23,17,27,0.00
2013-11-21,54.0,2.9,50.0,-99.9,-99.9,-99.9,0,0,100,30.53,30.39,14,-21,19,0.00
2013-11-22,58.0,1.0,57.0,-99.9,-99.9,-99.9,0,0,100,30.39,29.95,21,-3,27,0.00
2013-11-23,55.0,1.3,40.0,-99.9,-99.9,-99.9,0,0,100,30.08,29.95,35,2,43,0.00
2013-11-24,31.0,1.5,27.0,-99.9,-99.9,-99.9,0,0,100,30.47,30.07,42,-23,51,0.00
2013-11-25,32.0,0.6,25.0,-99.9,-99.9,-99.9,0,0,100,30.56,30.38,18,-10,24,0.00
2013-11-26,40.0,0.8,38.0,-99.9,-99.9,-99.9,0,0,100,30.38,29.58,24,8,37,0.00
2013-11-27,-200.0,0.0,200.0,-99.9,-99.9,-99.9,0,0,100,29.91,29.39,38,23,45,0.00
2013-11-28,-200.0,0.0,200.0,-99.9,-99.9,-99.9,0,0,100,30.49,29.90,33,16,40,0.00
2013-11-29,38.0,0.4,38.0,-99.9,-99.9,-99.9,0,0,100,30.70,30.47,22,-2,25,0.00
2013-11-30,43.0,1.9,33.0,-99.9,-99.9,-99.9,0,0,100,30.70,30.34,20,-29,23,0.00
2013-12-1,40.0,1.1,37.0,-99.9,-99.9,-99.9,0,0,100,30.35,30.02,11,6,13,0.00
2013-12-2,49.0,1.6,46.0,-99.9,-99.9,-99.9,0,0,100,30.02,29.85,12,5,14,0.00
2013-12-3,44.0,0.9,42.0,-99.9,-99.9,-99.9,0,0,100,30.00,29.84,15,-6,18,0.00
2013-12-4,56.0,1.5,52.0,-99.9,-99.9,-99.9,0,0,100,30.09,29.99,8,-5,11,0.00
2013-12-5,54.0,2.1,53.0,-99.9,-99.9,-99.9,0,0,100,30.10,29.95,12,-32,20,0.00
2013-12-6,68.0,1.7,47.0,-99.9,-99.9,-99.9,0,0,100,30.11,29.91,25,2,30,0.00
2013-12-7,40.0,1.4,40.0,-99.9,-99.9,-99.9,0,0,100,30.49,30.04,28,10,32,0.00
2013-12-8,46.0,1.2,34.0,-99.9,-99.9,-99.9,0,0,100,30.56,30.23,25,18,28,0.00
2013-12-9,46.0,1.7,38.0,-99.9,-99.9,-99.9,0,0,100,30.25,30.01,17,0,21,0.00
2013-12-10,36.0,1.1,36.0,-99.9,-99.9,-99.9,0,0,100,30.22,29.90,26,-10,31,0.00
2013-12-11,39.0,2.0,34.0,-99.9,-99.9,-99.9,0,0,100,30.40,30.21,13,-16,15,0.00
2013-12-12,34.0,0.6,29.0,-99.9,-99.9,-99.9,0,0,100,30.38,30.23,31,-7,37,0.00
2013-12-13,-200.0,0.0,200.0,-99.9,-99.9,-99.9,0,0,100,30.32,30.20,19,8,24,0.00
2013-12-14,48.0,0.8,46.0,-99.9,-99.9,-99.9,0,0,100,30.35,29.61,18,7,30,0.00
2013-12-15,-200.0,0.0,200.0,-99.9,-99.9,-99.9,0,0,100,29.93,29.55,27,15,33,0.00
2013-12-16,33.0,0.6,33.0,-99.9,-99.9,-99.9,0,0,100,30.21,29.93,23,11,28,0.00
2013-12-17,46.0,0.8,37.0,-99.9,-99.9,-99.9,0,0,100,30.18,29.91,22,2,25,0.00
2013-12-18,38.0,0.7,33.0,-99.9,-99.9,-99.9,0,0,100,30.23,29.91,26,3,30,0.00
2013-12-19,56.0,0.5,56.0,-99.9,-99.9,-99.9,0,0,100,30.23,30.07,17,-1,25,0.00
2013-12-20,50.0,0.4,50.0,-99.9,-99.9,-99.9,0,0,100,30.12,30.01,20,11,31,0.00
2013-12-21,-200.0,0.0,200.0,-99.9,-99.9,-99.9,0,0,100,30.04,29.94,21,12,30,0.00
2013-12-22,-200.0,0.0,200.0,-99.9,-99.9,-99.9,0,0,100,30.04,29.91,22,11,32,0.00
2013-12-23,50.0,0.4,50.0,-99.9,-99.9,-99.9,0,0,100,30.15,29.92,29,11,34,0.00
2013-12-24,-200.0,0.0,200.0,-99.9,-99.9,-99.9,0,0,100,30.39,30.12,34,24,42,0.00
2013-12-25,-200.0,0.0,200.0,-99.9,-99.9,-99.9,0,0,100,30.53,30.39,30,12,37,0.00
2013-12-26,-200.0,0.0,200.0,-99.9,-99.9,-99.9,0,0,100,30.40,30.20,17,7,20,0.00
2013-12-27,43.0,0.7,40.0,-99.9,-99.9,-99.9,0,0,100,30.43,30.31,15,7,17,0.00
2013-12-28,47.0,0.4,47.0,-99.9,-99.9,-99.9,0,0,100,30.33,30.13,16,-2,22,0.00
2013-12-29,-200.0,0.0,200.0,-99.9,-99.9,-99.9,0,0,100,30.13,29.45,29,13,36,0.00
2013-12-30,45.0,0.8,41.0,-99.9,-99.9,-99.9,0,0,100,30.16,29.79,26,-6,31,0.00
2013-12-31,-200.0,0.0,200.0,-99.9,-99.9,-99.9,0,0,100,30.33,30.10,24,13,30,0.00
2014-1-1,-200.0,0.0,200.0,-99.9,-99.9,-99.9,0,0,100,30.42,30.15,13,6,18,0.00
2014-1-2,41.0,0.4,41.0,-99.9,-99.9,-99.9,0,0,100,30.15,29.52,22,9,26,0.00